Total_Precipitation_Accumulation
2.94 3.21 3.07 2.90 2.91 2.90 3.18 3.49 3.50 3.09 2.76 2.54 2.36 2.28 2.26 2.22 2.33 2.16 2.12 2.14 1.92 1.76 1.62 1.50 1.44 1.42 1.51 1.66 1.89 2.14 2.33 2.48 2.62 2.74 2.94 3.18 3.45 3.74
2.84 2.98 2.94 2.88 3.08 3.07 3.18 3.44 3.65 3.58 2.97 2.72 2.61 2.29 2.34 1.97 2.14 2.02 1.99 1.97 1.76 1.63 1.53 1.48 1.44 1.42 1.42 1.45 1.54 1.68 1.85 2.00 2.13 2.23 2.28 2.33 2.42 2.59
2.41 2.50 2.50 2.75 2.96 2.92 3.08 3.25 3.49 3.73 3.31 3.03 3.06 2.77 2.72 2.44 2.20 2.00 1.77 1.72 1.60 1.57 1.44 1.36 1.34 1.33 1.35 1.33 1.31 1.37 1.50 1.62 1.73 1.88 2.05 2.16 2.19 2.23
2.32 2.42 2.29 2.49 2.62 2.69 2.89 3.04 3.30 3.71 3.54 3.26 3.18 3.05 2.90 2.66 2.44 2.20 1.76 1.53 1.55 1.67 1.49 1.35 1.29 1.25 1.26 1.24 1.18 1.15 1.18 1.25 1.31 1.44 1.62 1.79 1.92 2.06
2.16 2.09 2.03 2.22 2.27 2.45 2.62 2.64 2.84 3.24 3.32 3.02 2.90 3.12 2.97 2.75 2.76 2.42 2.11 2.01 1.56 1.58 1.50 1.32 1.26 1.18 1.17 1.20 1.18 1.11 1.07 1.08 1.12 1.23 1.42 1.59 1.71 1.79
1.89 1.78 1.80 1.97 1.98 2.14 2.21 2.41 2.60 2.73 2.93 2.89 2.78 2.90 2.91 2.82 2.97 2.75 2.55 2.38 2.01 1.65 1.64 1.39 1.27 1.20 1.16 1.13 1.13 1.14 1.15 1.14 1.13 1.19 1.26 1.37 1.53 1.64
1.66 1.53 1.48 1.49 1.56 1.71 1.68 1.96 2.26 2.36 2.44 2.57 2.59 2.68 2.90 3.03 2.90 2.89 2.73 2.56 2.35 2.12 2.06 1.65 1.35 1.18 1.15 1.15 1.17 1.21 1.24 1.24 1.25 1.31 1.40 1.46 1.52 1.60
1.63 1.61 1.44 1.34 1.32 1.38 1.40 1.48 1.69 1.83 2.03 2.29 2.37 2.47 2.71 2.99 3.07 3.07 2.96 2.73 2.51 2.32 2.42 2.36 1.96 1.68 1.45 1.21 1.21 1.23 1.30 1.39 1.43 1.49 1.58 1.70 1.82 1.82
1.60 1.58 1.33 1.21 1.28 1.23 1.32 1.31 1.38 1.45 1.57 1.83 1.96 2.03 2.30 2.63 2.98 3.03 3.09 2.90 2.65 2.58 2.67 2.69 2.73 2.47 1.87 1.52 1.45 1.27 1.32 1.43 1.49 1.54 1.61 1.64 1.80 1.96
1.50 1.55 1.53 1.47 1.38 1.41 1.43 1.36 1.24 1.26 1.31 1.25 1.35 1.61 1.83 2.11 2.51 2.68 2.96 3.11 2.93 2.82 2.84 2.91 2.91 3.12 2.60 2.05 1.89 1.62 1.53 1.55 1.60 1.61 1.63 1.71 1.77 1.87
1.53 1.57 1.55 1.47 1.48 1.46 1.44 1.42 1.28 1.22 1.22 1.22 1.21 1.35 1.58 1.74 2.04 2.36 2.65 2.87 2.94 3.00 3.06 3.12 3.01 3.15 3.41 2.92 2.23 1.89 1.62 1.55 1.58 1.62 1.67 1.78 1.86 1.87
1.62 1.62 1.54 1.46 1.56 1.46 1.31 1.35 1.33 1.35 1.40 1.35 1.35 1.38 1.42 1.59 1.88 2.13 2.41 2.70 2.74 2.82 2.66 2.67 2.69 2.82 3.25 3.40 2.98 2.33 1.88 1.71 1.60 1.55 1.58 1.70 1.86 1.72
1.68 1.70 1.68 1.60 1.35 1.27 1.24 1.25 1.34 1.42 1.49 1.51 1.50 1.53 1.62 1.67 1.74 1.93 2.20 2.45 2.54 2.36 2.14 2.31 2.50 2.61 2.66 2.79 2.91 2.81 2.41 2.08 1.87 1.71 1.66 1.64 1.68 1.64
1.96 1.95 1.91 1.74 1.45 1.32 1.23 1.27 1.36 1.31 1.32 1.44 1.42 1.41 1.49 1.57 1.67 1.86 2.07 2.19 2.25 2.23 2.19 2.32 2.47 2.49 2.58 2.60 2.63 2.66 2.65 2.48 2.29 2.16 2.09 2.07 1.87 1.79
2.17 2.20 2.08 1.84 1.58 1.37 1.30 1.29 1.25 1.18 1.20 1.28 1.24 1.20 1.28 1.38 1.48 1.67 1.89 2.08 2.13 2.05 2.05 2.17 2.29 2.31 2.44 2.51 2.43 2.31 2.38 2.47 2.46 2.43 2.46 2.43 2.27 2.08
2.27 2.22 2.12 1.91 1.64 1.48 1.41 1.30 1.17 1.23 1.26 1.23 1.24 1.25 1.33 1.44 1.56 1.65 1.82 1.98 2.13 2.08 2.02 2.05 2.13 2.26 2.24 2.10 2.04 1.90 1.88 2.00 2.15 2.30 2.50 2.70 2.72 2.60
2.39 2.23 2.12 1.90 1.72 1.64 1.55 1.45 1.38 1.36 1.30 1.26 1.28 1.29 1.31 1.38 1.47 1.53 1.64 1.71 1.77 1.80 1.86 1.95 2.10 2.23 2.22 2.14 2.00 1.78 1.72 1.68 1.73 2.02 2.34 2.57 2.58 2.43
1.87 1.80 1.83 1.78 1.70 1.63 1.58 1.50 1.44 1.38 1.34 1.33 1.32 1.29 1.25 1.27 1.36 1.48 1.59 1.61 1.58 1.58 1.67 1.78 2.02 2.23 2.25 2.07 1.73 1.61 1.60 1.57 1.58 1.79 1.97 2.06 2.02 1.89
1.54 1.57 1.53 1.52 1.50 1.48 1.49 1.44 1.36 1.34 1.38 1.39 1.33 1.33 1.32 1.33 1.37 1.49 1.61 1.66 1.60 1.58 1.69 1.85 1.99 2.13 2.10 1.87 1.64 1.40 1.43 1.48 1.61 1.78 1.85 1.80 1.68 1.52
1.42 1.48 1.48 1.46 1.45 1.48 1.51 1.47 1.44 1.45 1.47 1.49 1.47 1.48 1.51 1.52 1.53 1.54 1.61 1.67 1.64 1.63 1.71 1.82 1.85 1.90 1.91 1.80 1.69 1.51 1.29 1.35 1.44 1.56 1.64 1.65 1.53 1.36
1.51 1.56 1.57 1.58 1.59 1.62 1.60 1.57 1.56 1.53 1.48 1.52 1.53 1.54 1.53 1.54 1.59 1.62 1.68 1.76 1.70 1.63 1.60 1.59 1.67 1.81 1.94 2.12 1.98 1.69 1.50 1.40 1.43 1.47 1.55 1.65 1.64 1.57
1.47 1.52 1.57 1.61 1.65 1.64 1.59 1.55 1.56 1.54 1.51 1.51 1.50 1.49 1.50 1.48 1.51 1.59 1.63 1.65 1.64 1.58 1.51 1.54 1.75 1.96 2.04 2.10 1.98 1.82 1.74 1.66 1.60 1.55 1.47 1.39 1.41 1.42
1.46 1.52 1.52 1.51 1.49 1.46 1.39 1.36 1.42 1.47 1.50 1.51 1.48 1.46 1.46 1.44 1.44 1.53 1.59 1.62 1.63 1.65 1.65 1.71 1.80 1.91 1.96 1.99 2.03 1.97 1.83 1.76 1.74 1.71 1.61 1.41 1.11 0.97